• In Deutschland
  • Länderverzeichnis
  • Für 7 Tage
  • Wassertemperatur
  • Satellitenkarten
  • Wetterkarte
  • Widgets
  • user-avatar
    Anmelden

    Stündliche Wetter Geretsried

    Heute, 19 Januar, Freitag

    Zeit Temperatur Niederschläge Wind Luftdruck Luftfeuchtigkeit
    00:00 +3°C° 2,1 mm 3 m/S 700 mmHg 90%
    01:00 +3°C° 2,1 mm 3 m/S 700 mmHg 91%
    02:00 +3°C° 2,3 mm 3 m/S 700 mmHg 91%
    03:00 +3°C° 2,3 mm 3 m/S 700 mmHg 91%
    04:00 +3°C° 2,3 mm 3 m/S 700 mmHg 91%
    05:00 +3°C° 1,4 mm 3 m/S 700 mmHg 91%
    06:00 +1°C° 1,4 mm 4 m/S 700 mmHg 90%
    07:00 +1°C° 1,4 mm 4 m/S 700 mmHg 89%
    08:00 +1°C° 0,9 mm 4 m/S 701 mmHg 89%
    09:00 +1°C° 0,9 mm 4 m/S 702 mmHg 88%
    10:00 0°C° 0,9 mm 4 m/S 702 mmHg 88%
    11:00 0°C° 0,5 mm 4 m/S 703 mmHg 87%
    12:00 0°C° 0,5 mm 4 m/S 703 mmHg 85%
    13:00 0°C° 0,5 mm 5 m/S 703 mmHg 84%
    14:00 0°C° 0,4 mm 4 m/S 704 mmHg 84%
    15:00 0°C° 0,4 mm 4 m/S 704 mmHg 85%
    16:00 +1°C° 0,4 mm 3 m/S 704 mmHg 85%
    17:00 0°C° 0,2 mm 3 m/S 705 mmHg 87%
    18:00 0°C° 0,2 mm 3 m/S 705 mmHg 89%
    19:00 -1°C° 0,2 mm 2 m/S 706 mmHg 90%
    20:00 -1°C° 0,1 mm 2 m/S 706 mmHg 90%
    21:00 -2°C° 0,1 mm 2 m/S 706 mmHg 91%
    22:00 -2°C° 0,1 mm 2 m/S 706 mmHg 91%
    23:00 -2°C° 0,2 mm 2 m/S 706 mmHg 91%

    Morgen, 20 Januar, Samstag

    Zeit Temperatur Niederschläge Wind Luftdruck Luftfeuchtigkeit
    00:00 -2°C° 0,2 mm 2 m/S 705 mmHg 90%
    01:00 -2°C° 0,2 mm 2 m/S 705 mmHg 90%
    02:00 -2°C° 0,7 mm 2 m/S 705 mmHg 91%
    03:00 -2°C° 0,7 mm 3 m/S 705 mmHg 91%
    04:00 -2°C° 0,7 mm 3 m/S 705 mmHg 92%
    05:00 -2°C° 0,3 mm 3 m/S 705 mmHg 92%
    06:00 -3°C° 0,3 mm 4 m/S 705 mmHg 91%
    07:00 -3°C° 0,3 mm 4 m/S 705 mmHg 90%
    08:00 -2°C° 0,5 mm 4 m/S 704 mmHg 90%
    09:00 -1°C° 0,5 mm 3 m/S 704 mmHg 89%
    10:00 -1°C° 0,5 mm 3 m/S 704 mmHg 89%
    11:00 0°C° 0,5 mm 3 m/S 703 mmHg 88%
    12:00 +1°C° 0,5 mm 2 m/S 702 mmHg 88%
    13:00 +2°C° 0,5 mm 2 m/S 702 mmHg 87%
    14:00 +2°C° 0,1 mm 2 m/S 701 mmHg 88%
    15:00 +2°C° 0,1 mm 1 m/S 700 mmHg 90%
    16:00 +2°C° 0,1 mm 1 m/S 699 mmHg 91%
    17:00 +2°C° 0,7 mm 1 m/S 699 mmHg 92%
    18:00 -1°C° 0,7 mm 2 m/S 698 mmHg 92%
    19:00 -1°C° 0,7 mm 2 m/S 698 mmHg 93%
    20:00 -1°C° 1 mm 2 m/S 698 mmHg 94%
    21:00 -1°C° 1 mm 2 m/S 698 mmHg 95%
    22:00 -1°C° 1 mm 2 m/S 699 mmHg 95%
    23:00 -1°C° 1 mm 3 m/S 699 mmHg 95%

    übermorgen, 21 Januar, Sonntag

    Zeit Temperatur Niederschläge Wind Luftdruck Luftfeuchtigkeit
    00:00 -1°C° 1 mm 4 m/S 700 mmHg 95%
    01:00 -1°C° 1 mm 5 m/S 700 mmHg 95%
    02:00 -1°C° 0,7 mm 5 m/S 701 mmHg 94%
    03:00 -2°C° 0,7 mm 5 m/S 702 mmHg 93%
    04:00 -2°C° 0,7 mm 5 m/S 703 mmHg 93%
    05:00 -3°C° 0,3 mm 4 m/S 703 mmHg 94%
    06:00 -4°C° 0,3 mm 3 m/S 704 mmHg 95%
    07:00 -4°C° 0,3 mm 2 m/S 705 mmHg 96%
    08:00 -3°C° 0,2 mm 2 m/S 706 mmHg 95%
    09:00 -2°C° 0,2 mm 2 m/S 706 mmHg 95%
    10:00 -2°C° 0,2 mm 2 m/S 707 mmHg 94%
    11:00 -1°C° 0,1 mm 2 m/S 707 mmHg 94%
    12:00 -1°C° 0,1 mm 2 m/S 707 mmHg 93%
    13:00 +1°C° 0,1 mm 2 m/S 707 mmHg 93%
    14:00 +2°C° 0,3 mm 1 m/S 707 mmHg 94%
    15:00 +2°C° 0,3 mm 1 m/S 707 mmHg 95%
    16:00 +2°C° 0,3 mm 1 m/S 707 mmHg 96%
    17:00 +1°C° 0,5 mm 1 m/S 707 mmHg 96%
    18:00 +1°C° 0,5 mm 1 m/S 707 mmHg 95%
    19:00 +1°C° 0,5 mm 1 m/S 707 mmHg 95%
    20:00 +1°C° 1 mm 1 m/S 707 mmHg 95%
    21:00 -1°C° 1 mm 2 m/S 707 mmHg 96%
    22:00 -1°C° 1 mm 2 m/S 706 mmHg 96%
    23:00 +1°C° 1,6 mm 2 m/S 706 mmHg 96%

    22 Januar, Montag

    Zeit Temperatur Niederschläge Wind Luftdruck Luftfeuchtigkeit
    00:00 +1°C° 1,6 mm 2 m/S 706 mmHg 97%
    01:00 +2°C° 1,6 mm 2 m/S 705 mmHg 97%
    02:00 +2°C° 3,4 mm 2 m/S 705 mmHg 98%
    03:00 +3°C° 3,4 mm 2 m/S 705 mmHg 98%
    04:00 +3°C° 3,4 mm 2 m/S 705 mmHg 99%
    05:00 +2°C° 3,4 mm 3 m/S 705 mmHg 99%
    06:00 +3°C° 3,4 mm 3 m/S 705 mmHg 99%
    07:00 +3°C° 3,4 mm 3 m/S 705 mmHg 99%
    08:00 +3°C° 2,4 mm 4 m/S 705 mmHg 99%
    09:00 +3°C° 2,4 mm 4 m/S 705 mmHg 99%
    10:00 +4°C° 2,4 mm 4 m/S 705 mmHg 99%
    11:00 +4°C° 2,2 mm 4 m/S 705 mmHg 99%
    12:00 +4°C° 2,2 mm 4 m/S 705 mmHg 99%
    13:00 +4°C° 2,2 mm 4 m/S 705 mmHg 99%
    14:00 +5°C° 2,1 mm 5 m/S 705 mmHg 98%
    15:00 +5°C° 2,1 mm 5 m/S 705 mmHg 98%
    16:00 +5°C° 2,1 mm 5 m/S 705 mmHg 97%
    17:00 +6°C° 0,3 mm 5 m/S 705 mmHg 96%
    18:00 +5°C° 0,3 mm 6 m/S 705 mmHg 95%
    19:00 +5°C° 0,3 mm 6 m/S 706 mmHg 94%
    20:00 +5°C° 0,6 mm 6 m/S 706 mmHg 93%
    21:00 +5°C° 0,6 mm 6 m/S 706 mmHg 93%
    22:00 +5°C° 0,6 mm 6 m/S 706 mmHg 92%
    23:00 +5°C° 0,8 mm 6 m/S 706 mmHg 93%

    23 Januar, Dienstag

    Zeit Temperatur Niederschläge Wind Luftdruck Luftfeuchtigkeit
    00:00 +5°C° 0,8 mm 6 m/S 707 mmHg 93%
    01:00 +5°C° 0,8 mm 6 m/S 708 mmHg 93%
    02:00 +5°C° 0,6 mm 5 m/S 708 mmHg 94%
    03:00 +5°C° 0,6 mm 3 m/S 709 mmHg 95%
    04:00 +5°C° 0,6 mm 2 m/S 710 mmHg 96%
    05:00 +5°C° 0,7 mm 2 m/S 710 mmHg 96%
    06:00 +5°C° 0,7 mm 2 m/S 711 mmHg 97%
    07:00 +5°C° 0,7 mm 2 m/S 711 mmHg 97%
    08:00 +5°C° 1,1 mm 2 m/S 712 mmHg 96%
    09:00 +5°C° 1,1 mm 3 m/S 712 mmHg 96%
    10:00 +5°C° 1,1 mm 4 m/S 713 mmHg 95%
    11:00 +5°C° 0,1 mm 4 m/S 713 mmHg 92%
    12:00 +6°C° 0,1 mm 4 m/S 713 mmHg 90%
    13:00 +6°C° 0,1 mm 4 m/S 713 mmHg 88%
    14:00 +6°C° 0 mm 4 m/S 714 mmHg 89%
    15:00 +7°C° 0 mm 3 m/S 714 mmHg 90%
    16:00 +5°C° 0 mm 3 m/S 714 mmHg 91%
    17:00 +5°C° 0 mm 3 m/S 715 mmHg 91%
    18:00 +4°C° 0 mm 3 m/S 715 mmHg 90%
    19:00 +4°C° 0 mm 2 m/S 716 mmHg 90%
    20:00 +4°C° 0 mm 2 m/S 716 mmHg 89%
    21:00 +3°C° 0 mm 2 m/S 716 mmHg 88%
    22:00 +3°C° 0 mm 2 m/S 717 mmHg 86%
    23:00 +3°C° 0 mm 2 m/S 716 mmHg 85%

    24 Januar, Mittwoch

    Zeit Temperatur Niederschläge Wind Luftdruck Luftfeuchtigkeit
    00:00 +2°C° 0 mm 2 m/S 716 mmHg 84%
    01:00 +2°C° 0 mm 2 m/S 716 mmHg 83%
    02:00 +2°C° 0 mm 2 m/S 716 mmHg 82%
    03:00 +2°C° 0 mm 2 m/S 716 mmHg 81%
    04:00 +2°C° 0 mm 2 m/S 716 mmHg 80%
    05:00 +2°C° 0 mm 2 m/S 716 mmHg 79%
    06:00 +1°C° 0 mm 2 m/S 716 mmHg 78%
    07:00 +2°C° 0 mm 1 m/S 716 mmHg 78%
    08:00 +3°C° 0 mm 1 m/S 716 mmHg 78%
    09:00 +5°C° 0 mm 1 m/S 716 mmHg 78%
    10:00 +6°C° 0 mm 1 m/S 716 mmHg 78%
    11:00 +7°C° 0 mm 1 m/S 716 mmHg 79%
    12:00 +8°C° 0 mm 1 m/S 715 mmHg 80%
    13:00 +9°C° 0 mm 1 m/S 715 mmHg 80%
    14:00 +8°C° 0 mm 1 m/S 714 mmHg 83%
    15:00 +8°C° 0 mm 1 m/S 714 mmHg 86%
    16:00 +7°C° 0 mm 1 m/S 714 mmHg 89%
    17:00 +6°C° 0 mm 1 m/S 714 mmHg 88%
    18:00 +6°C° 0 mm 1 m/S 714 mmHg 87%
    19:00 +5°C° 0 mm 1 m/S 714 mmHg 87%
    20:00 +4°C° 0 mm 1 m/S 714 mmHg 85%
    21:00 +4°C° 0 mm 1 m/S 714 mmHg 84%
    22:00 +4°C° 0 mm 1 m/S 714 mmHg 83%
    23:00 +4°C° 0 mm 1 m/S 714 mmHg 81%
    Mehr zeigen